Location: Cahas Mountain Overlook
(37.0833°N, 80.1000°W)
Time: 03:37:25
(UTC-04:00)

FO-29 - Pass Details

Date: 25 April 2024
Orbit: 800 x 1320 km, 98.6° (Epoch: 07 September)

Event Time Altitude Azimuth Distance (km) Brightness Sun altitude
Rises 04:19:19 0° 3° (N) 4,228 13.4 -24.0°
Reaches altitude 10° 04:22:14 10° 354° (N) 3,298 12.7 -23.6°
Maximum altitude 04:28:56 34° 294° (WNW) 2,036 10.9 -22.5°
Enters shadow 04:31:08 29° 265° (W) 2,209 10.9 -22.2°
